OpenBCM V2.0.2 (Linux)

Packet Radio Mailbox

IZ3LSV

[San Dona' di P. JN]

 Login: GUEST





  
LU9DCE > KEPS     05.03.18 18:13l 261 Lines 12976 Bytes #999 (0) @ WW
BID : 33541_LU9DCE
Read: GUEST
Subj: SAT TLE OF 5
Path: IZ3LSV<IR2UBX<EA2RCF<LU9DCE
Sent: 180305/1601Z @:LU9DCE.TOR.BA.ARG.SOAM #:33541 [TORTUGUITAS] FBB7.07
From: LU9DCE@LU9DCE.TOR.BA.ARG.SOAM
To  : KEPS@WW


            __    _  _  ___  ____   ___  ____    ____  ____  ____
           (  )  / )( \/ _ \(    \ / __)(  __)  (  _ \(  _ \/ ___)
           / (_/\) \/ (\__  )) D (( (__  ) _)    ) _ ( ) _ (\___ \
           \____/\____/(___/(____/ \___)(____)  (____/(____/(____/
               ESTACION DE PACKET RADIO - BUENOS AIRES (GF05OM)
                   BOLETINES INFORMATIVOS PROGRAMADOS (BIP)
                    LU9DCE@GMX.COM - RF 147070 @ 1200 BAUD
                           telnet lu9dce.dynu.com
             BBS port 6300 / NODE port 3694 / DXCLUSTER port 9000

+------------------------------------------------------------------------------+
OSCAR 7
1 07530U 74089B   18063.56634494 -.00000044  00000-0  69554-6 0  9996
2 07530 101.6741  32.5124 0012037 176.3109 303.9173 12.53631329981485
OSCAR 11 (UoSAT 2)
1 14781U 84021B   18063.62050550 +.00000072 +00000-0 +15019-4 0  9996
2 14781 097.6634 104.2190 0009895 070.1859 290.0421 14.82984268807944
OSCAR 19 (LUSAT)
1 20442U 90005G   18063.39951794  .00000014  00000-0  21254-4 0  9994
2 20442  98.6016   2.5877 0012907  98.6408 261.6239 14.32888177468889
KITSAT B
1 22825U 93061C   18064.17776535 -.00000002  00000-0  17226-4 0  9993
2 22825  98.8510  38.4746 0007422 293.4523  66.5878 14.30023232274707
POSAT 1
1 22826U 93061D   18063.86888376 -.00000014  00000-0  12323-4 0  9992
2 22826  98.8451  38.2113 0007892 282.7863  77.2436 14.30354092274842
RADIO ROSTO
1 23439U 94085A   18063.59415164 -.00000045 +00000-0 -70093-4 0  9994
2 23439 064.8163 157.9921 0160816 200.7722 259.4649 11.27566566954773
JAS 2
1 24278U 96046B   18063.67212951 -.00000044  00000-0 -88694-5 0  9999
2 24278  98.5273 276.7684 0350751  22.2397 339.3542 13.53082155 64108
TECHSAT 1B
1 25397U 98043D   18063.38149983 -.00000014 +00000-0 +12995-4 0  9999
2 25397 098.6403 005.6105 0001159 019.6233 340.4990 14.23640685020599
ISS (ZARYA)
1 25544U 98067A   18063.61449074 +.00001585 +00000-0 +31128-4 0  9991
2 25544 051.6417 180.0312 0002897 150.0844 029.0715 15.54181051102254
PCSAT
1 26931U 01043C   18063.55025398 +.00000002 +00000-0 +32397-4 0  9994
2 26931 067.0513 139.4059 0006193 282.6950 077.3459 14.30495755857511
SAUDISAT 1C
1 27607U 02058C   18064.44117623  .00000003  00000-0  21088-4 0  9990
2 27607  64.5555  47.1411 0053003 352.9010   7.1335 14.75424864817654
CUTE-1
1 27844U 03031E   18063.54716124  .00000042  00000-0  38963-4 0  9999
2 27844  98.6893  73.7357 0008981 319.4194  40.6313 14.22097574761326
CUBESAT XI 4
1 27848U 03031J   18063.54781474  .00000023  00000-0  30299-4 0  9996
2 27848  98.6982  74.0983 0009041 330.3318  29.7345 14.21703656761198
MOZHAYETS 4
1 27939U 03042A   18064.54779233  .00000074  00000-0  21719-4 0  9993
2 27939  97.9723 206.4630 0014254 115.3745 313.7470 14.66661716771624
CUBESAT XI 5
1 28895U 05043F   18063.39866670 +.00000106 +00000-0 +29184-4 0  9992
2 28895 097.8924 219.1913 0017661 044.4700 315.7917 14.63514385658315
CUTE-1.7+APD II
1 32785U 08021C   18063.55471122 +.00000197 +00000-0 +27017-4 0  9999
2 32785 097.5525 080.7029 0013828 031.6024 328.6021 14.88070245533545
DELFI C3
1 32789U 08021G   18063.59317305 +.00000678 +00000-0 +50951-4 0  9996
2 32789 097.5254 120.9997 0011002 297.4784 062.5324 15.05787106535943
SEEDS
1 32791U 08021J   18064.01465467  .00000330  00000-0  39155-4 0  9998
2 32791  97.5439  86.2535 0013588  12.1007 348.0535 14.90479835533993
YUBELEINY
1 32953U 08025A   18064.45592079  .00000001  00000-0 -66714-4 0  9997
2 32953  82.4990  77.1901 0020351  77.2279 283.1073 12.43082091443887
PRISM (HITOMI)
1 33493U 09002B   18064.37252696 -.00000008  00000-0  49888-5 0  9993
2 33493  98.1414 322.4286 0014544 304.3198  55.6656 14.96090447494828
KKS-1 (KISEKI)
1 33499U 09002H   18063.59642820 +.00000068 +00000-0 +18130-4 0  9994
2 33499 098.3504 241.9876 0007980 264.7724 095.2573 14.75299309489339
SWISSCUBE
1 35932U 09051B   18064.40257302  .00000124  00000-0  39146-4 0  9993
2 35932  98.5283 213.1622 0008166 161.3785 198.7712 14.56126664448336
BEESAT
1 35933U 09051C   18063.88762500  .00000103  00000-0  34248-4 0  9991
2 35933  98.5322 214.1159 0006057 172.9306 187.1977 14.56234173448364
ITUPSAT 1
1 35935U 09051E   18063.47109925 +.00000092 +00000-0 +32286-4 0  9991
2 35935 098.5434 213.9442 0008424 172.0736 188.0595 14.55415024448068
XIWANG-1 (HOPE-1)
1 36122U 09072B   18063.58162932 -.00000070 +00000-0 -74187-4 0  9996
2 36122 100.0828 083.0819 0007429 359.6082 000.5025 13.16343648394781
TISAT 1
1 36799U 10035E   18063.40760776  .00000301  00000-0  36724-4 0  9998
2 36799  98.0891 196.9593 0012340 186.4290 173.6770 14.90709131414547
JUGNU
1 37839U 11058B   18064.02572384  .00000317  00000-0  27267-4 0  9994
2 37839  19.9618 308.8659 0018977 178.6209 314.5184 14.12610953330622
SRMSAT
1 37841U 11058D   18063.87755946  .00000317  00000-0  29309-4 0  9995
2 37841  19.9731 356.8132 0011900  65.8647 336.2014 14.10599744330133
M-CUBED/EXP-1 PRIME
1 37855U 11061F   18063.58270008 +.00001548 +00000-0 +86997-4 0  9996
2 37855 101.7258 072.5804 0177577 031.7693 329.4086 15.04112285345455
HORYU 2
1 38340U 12025D   18064.52442035  .00000172  00000-0  33369-4 0  9990
2 38340  98.3735  82.6494 0011723 174.7625 185.3708 14.75507005311825
STRAND 1
1 39090U 13009E   18063.52170879 +.00000011 +00000-0 +19140-4 0  9992
2 39090 098.5316 271.2034 0008167 245.6379 114.3954 14.35013029262793
SOMP
1 39134U 13015E   18063.52046544  .00001215  00000-0  67341-4 0  9992
2 39134  64.8626 105.4106 0022519 224.8524 135.0784 15.18856778269008
BEESAT 3
1 39135U 13015F   18063.57041231  .00000698  00000-0  45595-4 0  9997
2 39135  64.8684 117.2660 0028336 247.0264 112.7872 15.16430062268786
BEESAT 2
1 39136U 13015G   18063.56970577 +.00000708 +00000-0 +46729-4 0  9993
2 39136 064.8694 119.7747 0029098 246.8988 112.9070 15.15911766268345
CUBEBUG 1
1 39153U 13018D   18063.81221715  .00000191  00000-0  31990-4 0  9996
2 39153  97.9777 159.6883 0015622 285.3493  74.5992 14.80347915262142
ZACUBE
1 39417U 13066B   18064.53126034  .00000191  00000-0  30471-4 0  9993
2 39417  97.5993  98.6433 0060334 133.7666 226.8563 14.80884027231458
TRITON 1
1 39427U 13066M   18063.57928773 +.00000114 +00000-0 +26468-4 0  9993
2 39427 097.6387 066.4605 0112956 234.1122 124.9556 14.67617309229046
GOMX 1
1 39430U 13066Q   18064.47548560  .00000172  00000-0  40730-4 0  9991
2 39430  97.6879  48.8811 0150389 298.2520  60.3570 14.59033128228022
HUMSAT D
1 39433U 13066T   18064.41084286  .00000231  00000-0  28137-4 0  9991
2 39433  97.6178 124.3547 0032409  69.5290 290.9403 14.91763672232951
50 SAT
1 39436U 13066W   18063.78828631  .00094472  00000-0  10749-2 0  9991
2 39436  97.7125 191.6673 0005997 228.8387 131.2353 15.61960454236942
CUBEBUG 2
1 39440U 13066AA  18064.12286699  .00000161  00000-0  29440-4 0  9999
2 39440  97.6084  85.5077 0080842 172.4600 187.7847 14.75619631230572
FUNCUBE 1
1 39444U 13066AE  18063.63573116  .00000230  00000-0  34724-4 0  9999
2 39444  97.6005  99.1866 0059526 132.5310 228.0952 14.81649728230175
UWE-3
1 39446U 13066AG  18064.52695090  .00000164  00000-0  28536-4 0  9996
2 39446  97.6026  91.8994 0071062 152.7792 207.7173 14.78153011229806
SPROUT
1 39770U 14029E   18064.21038330  .00000925  00000-0  11015-3 0  9998
2 39770  97.8725 166.1706 0009052 180.9641 179.1556 14.86695409204910
UNISAT 6
1 40012U 14033C   18064.20206068  .00000153  00000-0  30403-4 0  9994
2 40012  97.8239 304.2342 0058576 172.8777 187.3277 14.73771103199384
DUCHIFAT 1
1 40021U 14033M   18064.32203290  .00000449  00000-0  52192-4 0  9998
2 40021  97.9176 342.8548 0013394 155.1060 205.0806 14.90212736201481
QB50P1
1 40025U 14033R   18064.30085821  .00000276  00000-0  35588-4 0  9996
2 40025  97.9085 339.9006 0012826 160.6765 199.4940 14.88646904201336
CHUBUSAT 1
1 40300U 14070C   18064.11267817  .00000564  00000-0  28158-4 0  9994
2 40300  97.3718 144.0049 0018628 268.1787 179.3391 15.21408016184453
NUDT-PHONESAT
1 40900U 15049B   18063.57721989 +.00001958 +00000-0 +91634-4 0  9998
2 40900 097.4434 073.0598 0014694 041.2912 318.9432 15.20852081136014
ZDPS 2A
1 40901U 15049C   18064.18789313  .00000837  00000-0  45802-4 0  9993
2 40901  97.4601  72.1676 0014945  44.4885 315.7546 15.16885003135892
ZDPS 2B
1 40902U 15049D   18064.08175704  .00000751  00000-0  41688-4 0  9999
2 40902  97.4492  70.2595 0014955  42.1487 318.0893 15.16690009135862
XW-2A
1 40903U 15049E   18064.49277513  .00001661  00000-0  43547-4 0  9993
2 40903  97.3969  98.2714 0015641  49.3223 310.9380 15.40067973137841
KAITUO 1A
1 40904U 15049F   18064.52390622  .00000308  00000-0  20031-4 0  9995
2 40904  97.4583  70.0535 0015984  41.5460 116.0003 15.14901198135809
OBJECT G
1 40905U 15049G   18064.18156013  .00000374  00000-0  24234-4 0  9994
2 40905  97.4579  67.9680 0016779  35.7430 324.4921 15.13873130135689
XW-2C
1 40906U 15049H   18064.49837639  .00000590  00000-0  35028-4 0  9992
2 40906  97.4600  69.9027 0016015  34.7854 325.4422 15.15039689135798
XW-2D
1 40907U 15049J   18064.52683174  .00000659  00000-0  38557-4 0  9996
2 40907  97.4573  69.6409 0015328  32.9428 327.2756 15.15179413135804
LILACSAT 2
1 40908U 15049K   18063.55090668  .00000366  00000-0  24082-4 0  9992
2 40908  97.4680  68.1744 0017034  36.2428 323.9954 15.13420336135548
XW-2F
1 40910U 15049M   18064.55452867  .00000961  00000-0  52931-4 0  9994
2 40910  97.4580  70.7967 0015971  29.1083 331.1037 15.16297663135756
XW-2B
1 40911U 15049N   18064.54063643  .00000634  00000-0  37289-4 0  9990
2 40911  97.4610  70.1518 0015247  33.4310 326.7882 15.15127546135708
